This demonstration page uses our WeatherBlox Daily Observations layout. Learn more.

Left ArrowRight Arrow

34.74481, -87.66753

Hourly Observations for February 19, 2020

Temp ( °F °C ) Dew Point ( °F °C ) Humidity (%) Winds ( mph kmh ) Pressure ( in mb ) Visibility ( mi km ) Precip ( " mm )
12:53 am 00:53 Cloudy 46 7.8 40 4.4 79 79 NNE 8 13 30.24 1024 10 16 0.00 0.00
1:19 am 01:19 Cloudy 46 7.8 40 4.4 79 79 NNE 13 20 30.26 1025 9 14 0.00 0.00
1:53 am 01:53 Cloudy 46 7.8 40 4.4 79 79 NNE 9 15 30.25 1024 8 13 0.00 0.00
2:16 am 02:16 Cloudy 46 7.8 40 4.4 79 79 N 8 13 30.27 1025 8 13 0.00 0.00
2:53 am 02:53 Mostly Cloudy 46 7.8 39 3.9 77 77 NNE 12 19 30.26 1025 9 14 0.00 0.00
3:53 am 03:53 Cloudy 45 7.2 38 3.3 77 77 NNE 10 17 30.28 1025 9 14 0.00 0.00
4:35 am 04:35 Cloudy 45 7.2 37 2.8 74 74 NNE 14 22 30.31 1027 9 14 0.00 0.00
4:43 am 04:43 Cloudy 44 6.7 37 2.8 76 76 NE 12 19 30.32 1027 9 14 0.00 0.00
4:53 am 04:53 Cloudy 44 6.7 37 2.8 76 76 NNE 12 19 30.30 1026 9 14 0.00 0.00
5:53 am 05:53 Cloudy 44 6.7 37 2.8 76 76 NNE 8 13 30.33 1027 9 14 0.00 0.00
6:53 am 06:53 Cloudy 43 6.1 36 2.2 76 76 NNE 10 17 30.35 1028 7 11 0.00 0.00
7:53 am 07:53 Cloudy 43 6.1 36 2.2 76 76 NE 14 22 30.37 1029 8 13 0.00 0.00
8:53 am 08:53 Partly Cloudy 44 6.7 36 2.2 73 73 NE 14 22 30.38 1029 8 13 0.00 0.00
9:10 am 09:10 Mostly Cloudy 44 6.7 36 2.2 73 73 NE 14 22 30.42 1030 8 13 0.00 0.00
9:23 am 09:23 Partly Cloudy 44 6.7 36 2.2 73 73 NE 14 22 30.43 1030 8 13 0.00 0.00
9:50 am 09:50 Mostly Cloudy 45 7 37 3 76 76 NNE 9 15 30.42 1030 8 13 0.00 0.00
9:53 am 09:53 Mostly Cloudy 44 6.7 36 2.2 73 73 NNE 10 17 30.40 1030 8 13 0.00 0.00
10:53 am 10:53 Mostly Cloudy 44 6.7 36 2.2 73 73 NE 10 17 30.40 1030 8 13 0.00 0.00
11:04 am 11:04 Partly Cloudy 45 7.2 36 2.2 71 71 NNE 8 13 30.42 1030 8 13 0.00 0.00
11:53 am 11:53 Sunny 47 8.3 37 2.8 69 69 NE 12 19 30.39 1029 9 14 0.00 0.00
12:53 pm 12:53 Sunny 50 10 36 2.2 59 59 ENE 9 15 30.36 1028 10 16 0.00 0.00
1:53 pm 13:53 Sunny 52 11.1 35 1.7 53 53 NE 12 19 30.33 1027 10 16 0.00 0.00
2:53 pm 14:53 Sunny 54 12.2 34 1.1 47 47 ENE 9 15 30.32 1027 10 16 0.00 0.00
3:53 pm 15:53 Sunny 53 11.7 34 1.1 48 48 NE 9 15 30.32 1027 10 16 0.00 0.00
4:53 pm 16:53 Mostly Cloudy 52 11.1 33 0.6 49 49 NE 9 15 30.33 1027 10 16 0.00 0.00
5:53 pm 17:53 Cloudy 51 10.6 32 0 48 48 NE 9 15 30.34 1027 10 16 0.00 0.00
6:53 pm 18:53 Cloudy 51 10.6 32 0 48 48 NE 10 17 30.34 1027 10 16 0.00 0.00
7:53 pm 19:53 Cloudy 50 10 31 -0.6 48 48 NE 12 19 30.34 1027 10 16 0.00 0.00
8:53 pm 20:53 Cloudy 49 9.4 29 -1.7 46 46 NE 10 17 30.33 1027 10 16 0.00 0.00
9:53 pm 21:53 Mostly Cloudy 49 9.4 28 -2.2 44 44 NE 9 15 30.33 1027 10 16 0.00 0.00
10:53 pm 22:53 Mostly Clear 48 8.9 28 -2.2 46 46 ENE 8 13 30.31 1026 10 16 0.00 0.00
11:53 pm 23:53 Mostly Cloudy 47 8.3 29 -1.7 50 50 ENE 8 13 30.29 1026 10 16 0.00 0.00

Powered by AerisWeather